STARLINK-31672

decayed
NORAD ID: 59518 Int'l Des: 2024-073 Owner: SPXS Country: US Constellation: starlink
LEOCIRCULAR
グループ

STARLINK-31672について

説明を読み込み中...

高度履歴

Altitude vs Time

uPlot chart will show altitude changes over time

軌道要素

1 59518U 24073H 24225.72233096 .07162211 90871-5 21536-2 0 9990
2 59518 42.9895 312.3956 0004608 347.7883 150.4950 16.25982038 19686
Epoch: Aug 12, 2024 • Age: 9594 hours

現在のステータス

Position data unavailable
打ち上げ日 Apr 17, 2024
運用期間 1.4 years
落下予定日 Aug 12, 2024
タイプ internet

技術仕様

分類 Payload
質量 730.00 kg
乾燥質量 700.00 kg
総質量 730.00 kg
長さ 0.30 m
直径 4.10 m
スパン 29.00 m
形状 Box + pan
製造者 SPXS
バスタイプ Starlink V2M
フェーズステータス Unknown Transfer Status
所有者/国 SPXS/US

大規模コンステレーション

Loading constellations...